Theta_e
286 286 286 286 286 286 285 285 285 285 284 284 284 283 284 284 284 284 284 284 284 284 285 287 290 291 292 293 293 293 293 293 292 294 294 295 294 293 293 293 291 291 290
286 286 286 286 285 285 285 285 285 284 284 283 283 283 283 283 283 283 283 283 284 284 284 284 285 286 289 290 291 291 291 291 291 292 293 294 294 294 293 293 292 291 290
286 286 286 286 285 285 284 284 283 283 282 282 282 282 282 282 282 282 282 281 281 282 283 284 284 284 285 286 288 289 289 290 290 290 291 292 293 291 290 290 290 290 290
287 287 287 286 285 284 283 282 282 281 281 281 280 280 280 280 280 280 280 280 281 282 282 283 283 283 284 284 285 286 288 288 289 289 289 290 291 290 289 288 287 288 289
287 287 286 285 284 283 282 281 280 280 279 279 279 279 278 278 278 278 279 280 280 281 281 282 282 283 283 284 285 285 286 287 288 288 289 289 287 287 287 287 287 287 287
287 286 285 285 284 282 280 279 279 278 277 277 277 277 277 277 278 278 279 279 279 279 279 280 281 281 282 283 284 286 287 287 287 288 289 289 289 287 288 288 286 286 286
285 284 284 282 279 278 278 277 275 274 274 274 274 274 275 275 276 277 278 278 278 278 278 278 279 280 280 281 282 284 285 286 287 288 288 288 289 289 287 286 286 287 288
282 281 279 278 276 275 274 273 272 271 271 271 271 271 271 272 273 273 274 274 275 275 276 276 276 277 277 279 280 282 283 283 284 285 287 288 289 289 289 288 287 287 287
278 276 275 274 273 272 271 270 269 268 268 268 268 268 268 268 268 270 271 271 271 272 272 273 273 274 275 276 278 279 280 282 283 284 285 285 286 288 290 288 286 286 286
275 273 272 271 270 269 268 267 267 266 266 266 266 266 265 265 266 268 269 270 270 271 271 272 272 274 275 276 277 278 279 280 282 283 284 285 286 287 288 290 287 286 286
271 271 271 270 269 268 267 266 265 264 264 264 264 264 264 264 265 267 269 270 270 270 270 271 271 272 273 274 276 277 278 280 281 283 284 284 284 284 286 287 289 286 286
270 269 269 268 268 267 265 265 264 263 263 263 263 264 264 264 265 266 268 269 270 271 270 270 270 270 271 273 273 274 276 278 281 282 284 284 284 284 285 286 287 287 287
268 268 268 267 266 265 264 264 263 263 263 263 263 264 264 265 265 266 268 269 270 270 270 270 272 273 273 273 273 273 273 275 276 279 283 285 285 285 285 285 285 286 287
267 267 267 266 265 265 264 264 262 262 262 263 263 264 265 267 268 269 269 269 270 270 271 271 271 272 273 274 273 273 273 274 275 276 281 285 286 285 285 285 285 286 286
266 266 266 264 264 264 263 263 263 264 264 266 268 268 269 269 269 271 272 273 273 274 275 275 275 271 269 269 270 272 273 273 274 277 279 284 285 285 285 285 285 285 285
265 265 264 263 263 263 262 262 264 265 266 267 269 269 269 270 271 272 273 273 274 274 276 276 275 275 274 274 273 272 273 273 275 279 281 282 283 284 285 284 284 284 283
264 264 263 263 262 262 262 261 262 264 264 265 267 268 268 270 270 270 271 272 272 272 272 271 272 273 273 273 273 272 273 274 275 276 280 281 282 282 284 284 283 283 282
264 263 263 262 262 262 261 261 261 262 262 263 264 266 266 267 268 270 269 268 265 266 267 268 269 270 271 272 273 273 273 274 275 277 279 281 282 283 284 284 283 282 282
263 263 263 262 262 261 261 261 261 262 262 262 263 263 264 265 267 265 265 263 264 264 265 265 266 267 268 268 272 272 272 272 274 275 277 280 281 283 283 283 283 281 281
263 263 262 262 261 261 261 260 261 261 261 262 262 263 263 266 263 263 262 262 263 263 263 264 264 265 268 270 273 273 274 274 274 275 277 279 281 282 283 282 281 280 280
263 262 261 261 261 261 260 260 260 260 261 261 262 262 267 263 262 262 262 262 262 262 262 262 263 264 266 267 269 272 276 277 276 277 279 280 281 281 281 280 280 279 279
262 262 261 261 261 261 260 260 260 260 260 260 261 261 263 262 261 261 262 262 262 262 262 262 263 264 265 266 267 269 271 273 275 277 278 278 278 278 278 277 277 277 275
261 261 261 261 261 261 261 261 261 260 260 260 260 261 261 260 260 261 261 261 262 263 263 263 263 264 265 267 268 268 269 270 272 274 275 275 274 274 274 274 273 273 273
261 261 261 261 261 260 260 260 260 260 259 260 260 260 260 260 261 261 261 262 262 263 264 264 265 265 266 267 267 268 269 270 271 271 272 272 272 272 272 272 272 272 272
260 260 260 260 260 260 260 260 260 259 259 259 259 260 260 260 261 261 261 262 262 263 264 265 266 266 267 267 268 268 268 269 269 270 270 271 270 270 270 270 270 270 270
260 260 260 260 260 259 259 260 260 259 259 260 259 259 259 260 260 260 260 261 261 262 263 264 265 266 266 267 268 269 269 268 268 269 269 269 269 268 268 268 268 268 268
Wind_Speed
11 12 14 16 17 17 19 20 22 24 25 25 28 28 28 29 26 26 26 28 28 26 23 25 26 25 27 30 29 30 29 27 18 29 31 32 33 35 35 40 46 47 46
6 7 9 12 15 18 20 22 24 26 27 28 29 29 30 32 32 32 32 29 29 31 31 29 28 27 27 28 30 31 31 31 28 25 26 32 33 34 36 40 43 47 48
3 5 7 11 15 19 21 23 25 26 28 29 29 31 33 33 36 36 36 36 35 32 30 30 32 30 29 29 31 30 28 28 30 29 26 29 33 32 32 37 40 43 45
3 6 11 14 19 24 26 27 28 28 30 32 33 35 36 38 39 40 38 37 38 36 34 35 34 33 34 32 30 32 30 28 26 27 26 25 31 34 33 28 30 40 43
7 9 11 16 23 27 29 31 31 32 32 33 33 36 35 33 31 29 29 31 33 34 35 35 33 34 35 34 32 31 30 27 24 23 23 21 22 20 22 24 29 26 38
7 8 14 20 25 28 30 31 34 37 38 36 33 31 32 31 28 29 29 31 32 32 34 34 35 35 35 32 33 33 32 30 27 24 24 23 27 26 28 28 26 20 8
9 12 17 21 23 24 28 34 38 38 36 35 34 32 35 36 32 32 33 34 33 33 34 35 35 34 34 34 34 34 36 36 37 35 32 32 26 27 26 28 28 28 30
10 14 17 18 22 28 34 34 36 34 32 32 33 33 35 36 33 35 35 36 35 35 34 35 36 38 37 35 35 36 37 36 38 39 39 42 37 32 32 33 34 39 34
12 12 14 19 26 27 30 32 32 33 34 34 31 32 33 35 33 33 33 33 34 36 36 36 37 38 39 38 39 39 39 41 40 38 41 43 40 39 35 31 29 23 18
10 14 21 22 24 26 29 31 31 31 30 30 31 30 32 34 32 30 29 30 32 32 33 34 34 38 40 40 40 39 38 42 37 37 36 39 42 42 40 40 34 30 27
12 17 19 21 23 25 27 28 30 31 30 30 30 29 29 29 31 28 28 30 29 32 32 32 32 35 40 40 40 41 40 40 39 40 38 36 35 33 36 38 39 38 32
14 16 18 20 21 23 25 29 30 28 26 27 27 27 26 28 29 30 30 31 33 35 34 34 35 35 36 37 40 45 47 43 39 38 35 34 35 32 32 33 35 38 43
13 15 18 20 20 21 24 29 27 23 22 23 23 26 28 29 31 32 33 34 35 36 37 38 41 43 44 42 38 38 42 40 36 35 33 35 35 36 31 31 32 34 35
14 16 19 20 22 22 23 26 22 24 21 24 26 27 28 28 29 28 31 35 37 37 39 42 45 42 40 41 38 35 34 34 35 38 38 32 31 29 31 32 30 29 29
13 16 18 19 21 23 22 24 23 25 25 29 28 29 29 29 30 36 38 36 36 37 42 37 32 28 28 29 30 30 31 32 34 40 41 32 29 23 28 30 31 27 24
12 15 17 19 20 20 21 24 26 23 26 28 29 29 31 33 35 38 38 38 39 39 40 29 27 27 28 29 29 27 28 30 30 30 26 25 19 17 24 28 29 28 22
11 15 17 18 19 18 20 20 22 35 29 23 22 26 28 31 32 34 36 37 35 33 25 25 26 27 29 30 29 27 27 28 28 27 23 22 22 25 27 26 25 27 23
11 13 15 16 18 20 20 21 21 20 24 36 31 26 27 28 31 33 30 29 27 25 22 24 26 29 30 30 27 25 23 25 25 23 22 19 21 23 25 26 23 24 23
11 13 13 15 17 19 20 21 19 19 22 24 29 30 32 29 29 24 24 21 22 23 24 26 27 31 31 31 28 26 26 28 29 26 25 23 22 22 22 22 24 26 25
10 10 11 15 16 17 17 18 18 18 20 21 22 23 33 29 30 30 27 25 24 24 25 27 29 30 29 27 26 26 26 26 27 27 27 26 22 20 18 17 20 21 22
10 10 11 12 13 14 15 17 17 18 19 20 22 22 24 24 23 24 26 26 25 26 27 27 28 29 28 29 28 24 22 24 23 24 25 25 21 19 20 19 20 21 20
9 9 10 11 10 11 12 13 14 16 18 19 21 22 21 22 22 23 25 26 27 26 27 27 27 28 29 28 28 25 22 17 14 6 9 12 13 12 14 15 14 14 17
9 8 8 8 8 8 10 10 12 13 16 17 19 22 23 24 25 25 27 28 29 29 29 28 28 29 31 30 26 24 22 19 14 6 1 4 8 11 14 15 16 16 17
8 8 8 7 7 7 8 10 10 12 14 16 17 19 20 22 24 25 26 27 28 28 28 29 30 31 32 31 28 25 21 17 13 9 3 6 11 13 15 16 15 16 17
7 8 7 7 7 8 9 9 10 12 13 15 17 18 20 21 23 24 25 26 27 27 28 28 28 29 31 31 27 27 22 18 15 11 8 8 11 13 16 18 18 18 19
8 9 8 8 8 8 9 10 12 14 15 17 18 18 19 21 22 24 25 26 26 26 26 25 25 25 27 29 27 25 23 20 16 12 10 12 14 16 18 20 21 21 20
Wind_Direction
49 37 25 21 16 7 1 356 353 350 347 344 343 340 338 335 336 335 331 329 328 324 320 315 304 297 289 285 281 278 266 259 262 273 268 265 259 252 249 248 245 244 241
59 39 22 12 3 354 348 344 343 339 337 337 335 332 330 330 329 329 325 320 316 314 313 312 308 308 300 292 285 279 273 270 261 270 267 262 258 255 251 247 246 244 242
36 9 356 351 348 345 340 336 334 332 330 328 327 323 321 321 319 317 316 314 311 307 303 300 302 304 299 297 292 283 276 268 262 259 264 264 264 255 244 244 243 243 243
301 324 332 334 337 335 332 331 330 328 325 323 321 317 314 314 311 310 310 309 307 305 302 299 296 292 292 292 288 285 279 267 261 256 259 256 258 256 245 229 230 237 239
276 308 324 325 328 327 327 327 326 324 321 318 313 310 307 302 299 303 303 301 299 297 296 293 291 289 289 285 279 277 276 267 260 256 258 252 235 229 234 229 227 230 237
285 308 315 314 314 316 317 318 316 314 313 312 307 304 301 296 297 300 299 298 295 291 289 289 287 286 284 280 276 271 264 260 258 253 255 249 248 233 235 231 221 208 238
284 304 309 311 312 314 313 312 313 312 312 309 306 306 302 299 303 302 300 298 292 286 285 283 283 280 281 282 280 277 271 265 257 254 253 249 253 246 236 227 222 224 231
299 309 309 311 313 313 313 314 314 313 309 306 304 302 299 299 305 304 302 297 291 285 280 279 279 281 280 279 280 276 272 268 264 258 251 254 251 251 248 240 231 234 240
311 314 309 311 313 314 314 315 312 310 307 304 303 302 301 302 306 304 302 297 291 288 286 283 280 279 277 278 279 277 276 271 267 262 258 258 254 249 245 241 232 225 236
310 309 311 316 318 315 315 313 312 307 300 300 299 298 298 299 303 303 301 296 291 291 291 289 287 284 284 281 275 271 268 265 267 266 262 258 253 250 246 241 228 220 229
300 308 314 318 317 316 315 315 313 307 301 299 297 298 296 295 296 301 299 295 293 292 289 291 291 291 288 287 284 279 271 273 268 262 259 255 253 248 241 239 234 219 223
308 312 317 319 319 318 317 317 314 303 297 298 298 298 297 293 293 295 298 294 292 291 290 287 285 289 290 285 278 274 277 277 278 261 254 246 245 242 237 233 235 233 227
310 316 320 322 323 322 319 316 303 299 298 296 297 295 293 293 288 292 293 292 290 285 281 281 285 288 288 288 288 283 281 277 279 272 248 248 236 236 238 236 235 241 240
312 320 326 325 321 325 319 312 294 299 297 294 291 288 290 293 295 296 290 283 279 278 276 273 274 277 278 278 277 274 272 266 267 268 267 240 238 222 223 225 230 230 230
313 322 325 322 322 319 310 306 298 298 295 294 297 299 302 302 301 301 303 301 294 289 290 288 285 270 260 262 262 258 262 268 266 260 248 238 232 220 217 220 221 223 222
308 321 321 319 320 309 302 302 316 307 306 304 305 307 307 306 309 310 310 308 304 301 298 285 285 287 283 277 268 264 264 266 268 273 251 245 228 235 231 213 213 214 216
312 318 317 315 317 305 303 301 305 322 318 314 317 318 318 316 320 318 317 315 313 311 313 311 301 293 287 281 270 264 263 265 270 275 250 241 240 238 234 211 205 207 211
313 312 311 315 313 307 302 299 302 307 309 316 327 330 328 329 328 328 329 330 330 328 318 311 304 301 298 289 276 265 265 264 270 267 274 250 245 248 215 210 205 205 207
308 312 315 317 314 307 310 304 304 307 306 306 319 331 337 336 336 339 341 335 324 321 319 314 310 306 301 289 278 262 254 254 260 268 269 263 255 256 222 217 213 203 198
302 308 313 315 314 315 316 309 310 312 308 311 319 326 329 343 344 340 340 337 332 327 323 321 319 320 318 325 294 273 260 248 245 250 257 256 249 245 232 212 196 195 198
293 305 311 313 314 316 319 314 322 317 309 313 316 331 342 346 331 332 334 336 335 332 329 327 326 329 331 333 333 328 327 255 241 240 244 249 235 225 224 205 198 196 194
283 293 301 309 315 321 323 323 330 329 327 321 327 338 345 346 339 337 337 337 338 339 339 338 335 338 343 343 344 349 355 1 360 310 238 224 212 198 183 172 166 159 151
271 278 293 301 307 316 323 333 344 340 336 339 346 349 351 347 347 344 344 344 344 349 356 357 353 353 358 4 8 8 7 8 9 6 83 141 136 135 136 130 133 132 139
260 272 283 294 305 318 321 335 344 340 337 341 345 347 348 350 351 354 357 359 357 359 7 9 9 9 7 7 13 14 15 13 17 25 58 115 117 124 125 120 122 128 131
261 262 271 282 292 307 313 326 333 333 337 339 339 342 343 346 348 352 356 358 359 2 5 11 14 15 18 18 12 20 20 25 28 33 57 94 110 117 118 113 111 110 114
260 261 267 275 283 290 300 315 322 325 329 332 332 335 338 340 342 345 349 353 353 355 360 4 8 14 22 20 24 23 25 26 38 49 72 91 100 103 106 105 106 104 105